Home > Weather > Solingen > Past weeks

Flag for Germany Weather for the Past 2 Weeks in Solingen, North Rhine-Westphalia, Germany

Now
37 °F

Passing clouds.


Feels Like: 31 °F
Forecast: 29 / 34 °F
Wind: 8 mph from West

Location: Duesseldorf

Current Time: Feb 14, 2016 at 6:56:27 PM

Latest Report: Feb 14, 2016 at 6:20 PM


Visibility: N/A

Pressure: 29.33 "Hg

Humidity: 93%

Dew point: 36 °F

Location of SolingenLocation

Historic Weather in Solingen — Graph

°F

Solingen Temperature Yesterday

Maximum temperature yesterday: 41 °F (at 12:50 PM)
Minimum temperature yesterday: 27 °F (at 3:20 AM)
Average temperature yesterday: 35 °F

High & Low Weather Summary for the Past Weeks

 TemperatureHumidityPressure
High54 °F (Jan 31, 11:50 PM)100% (Jan 31, 6:20 PM)30.30 "Hg (Jan 31, 6:20 PM)
Low27 °F (Feb 13, 3:20 AM)57% (Feb 3, 1:50 PM)28.77 "Hg (Feb 9, 4:20 PM)
Average43 °F84%29.68 "Hg
* Reported Jan 30 5:20 PM — Feb 14 5:20 PM, Solingen, Weather by CustomWeather, © 2016

Note: Actual official high and low records may vary slightly from our data, if they occured in-between our weather recording intervals... More about our weather records

Advertising

Solingen Weather History for the Previous 24 Hours

 ConditionsComfort  
Time TempWeatherWind HumidityBarometerVisibility
5:20 PM
Sun, Feb 14
37 °FBroken clouds.9 mph93%29.30 "HgN/A
4:50 PM37 °FBroken clouds.8 mph93%29.30 "HgN/A
4:20 PM37 °FLight rain. Partly sunny.9 mph93%29.27 "HgN/A
3:50 PM37 °FLight rain. Partly sunny.8 mph93%29.27 "HgN/A
3:20 PM37 °FDrizzle. Partly sunny.7 mph93%29.24 "Hg5 mi
2:50 PM37 °FLight rain. Broken clouds.8 mph93%29.24 "Hg6 mi
2:20 PM37 °FLight rain. Broken clouds.8 mph93%29.21 "Hg6 mi
1:50 PM37 °FLight rain. Broken clouds.8 mph93%29.21 "Hg6 mi
1:20 PM37 °FLight rain. Low clouds.8 mph93%29.21 "HgN/A
12:50 PM37 °FLight rain. Mostly cloudy.9 mph93%29.18 "Hg6 mi
12:20 PM37 °FLight rain. Partly sunny.8 mph93%29.18 "Hg6 mi
11:50 AM37 °FLight rain. Cloudy.7 mph93%29.18 "Hg5 mi
11:20 AM37 °FLight rain. Cloudy.6 mph93%29.15 "Hg4 mi
10:50 AM37 °FLight rain. Mostly cloudy.7 mph93%29.15 "Hg4 mi
10:20 AM37 °FDrizzle. Low clouds.7 mph93%29.15 "Hg4 mi
9:50 AM37 °FDrizzle. Fog.7 mph100%29.12 "Hg3 mi
9:20 AM37 °FDrizzle. Fog.7 mph100%29.12 "Hg1 mi
8:20 AM37 °FDrizzle. Fog.6 mph100%29.09 "Hg1 mi
7:50 AM37 °FDrizzle. Fog.5 mph100%29.06 "Hg1 mi
7:20 AM37 °FDrizzle. Fog.5 mph100%29.06 "Hg2 mi
6:50 AM37 °FDrizzle. Fog.No wind100%29.06 "Hg2 mi
6:20 AM37 °FLight rain. Fog.No wind100%29.06 "Hg2 mi
5:50 AM37 °FLight rain. Fog.No wind100%29.03 "Hg3 mi
5:20 AM37 °FLight rain. Fog.No wind100%29.03 "Hg3 mi
4:50 AM37 °FFog.No wind100%29.03 "Hg3 mi
4:20 AM37 °FFog.1 mph100%29.03 "Hg3 mi
3:50 AM37 °FFog.3 mph100%29.03 "Hg3 mi
3:20 AM37 °FLight rain. Fog.5 mph100%29.03 "Hg3 mi
2:20 AM37 °FLight rain. Fog.5 mph100%29.00 "Hg3 mi
1:50 AM37 °FLight rain. Fog.5 mph100%29.00 "Hg3 mi
1:20 AM37 °FLight rain. Fog.5 mph100%29.03 "Hg3 mi
12:50 AM37 °FLight rain. Fog.6 mph100%29.03 "Hg3 mi
12:20 AM37 °FLight rain. Fog.7 mph100%29.03 "Hg3 mi
11:50 PM
Sat, Feb 13
37 °FLight rain. Passing clouds.9 mph93%29.03 "Hg4 mi
11:20 PM37 °FLight rain. Passing clouds.8 mph93%29.03 "Hg5 mi
10:50 PM37 °FLight rain. Passing clouds.8 mph93%29.03 "Hg5 mi
10:20 PM37 °FLight rain. Passing clouds.7 mph93%29.03 "Hg5 mi
9:50 PM37 °FLight rain. Passing clouds.8 mph93%29.03 "Hg6 mi
9:20 PM37 °FLight rain. Passing clouds.6 mph93%29.03 "Hg6 mi
8:50 PM37 °FLight rain. Partly cloudy.7 mph100%29.03 "HgN/A
8:20 PM37 °FLight rain. Passing clouds.7 mph93%29.06 "Hg6 mi
7:50 PM37 °FLight rain. Partly cloudy.7 mph93%29.06 "Hg6 mi
7:20 PM37 °FLight rain. Passing clouds.8 mph93%29.06 "Hg6 mi
6:50 PM37 °FLight rain. Passing clouds.8 mph93%29.09 "HgN/A
6:20 PM37 °FLight rain. Passing clouds.8 mph93%29.09 "HgN/A
Weather by CustomWeather, © 2016

See weather overviewHow to use our weather pages